DHOOL EDSB-ZZZZ

Flight info

Callsign DHOOL
Flight time N/A
Altitude 3000
Route DCT
Aircraft B407/L-VGDW/C

Departure

Time 2026-05-08 18:37
Airport Karlsruhe Baden-Baden Airport (EDSB)

Arrival

Time N/A
Airport ZZZZ
Time Latitude Longitude Altitude Speed Heading
2026-05-08 18:26 48.76960 8.07852 412 ft 0 kts 309°
2026-05-08 18:34 48.76977 8.07854 420 ft 6 kts
2026-05-08 18:34 48.77033 8.07864 420 ft 9 kts
2026-05-08 18:34 48.77086 8.07843 414 ft 9 kts 312°
2026-05-08 18:34 48.77112 8.07773 421 ft 8 kts 318°
2026-05-08 18:35 48.77130 8.07759 407 ft 0 kts 28°
2026-05-08 18:35 48.77169 8.07789 463 ft 20 kts 26°
2026-05-08 18:36 48.77416 8.08000 575 ft 57 kts 24°
2026-05-08 18:36 48.77825 8.08350 721 ft 74 kts 26°
2026-05-08 18:36 48.78362 8.08619 759 ft 87 kts
2026-05-08 18:36 48.78975 8.08602 900 ft 85 kts 350°
2026-05-08 18:37 48.79593 8.08424 1000 ft 97 kts 349°
2026-05-08 18:37 48.80259 8.08337 1026 ft 94 kts 356°
2026-05-08 18:37 48.80888 8.08360 1089 ft 87 kts
2026-05-08 18:37 48.81491 8.08371 1196 ft 90 kts 354°
2026-05-08 18:38 48.82116 8.08198 1276 ft 95 kts 349°
2026-05-08 18:38 48.82774 8.08014 1356 ft 96 kts 348°
2026-05-08 18:38 48.83407 8.07756 1516 ft 94 kts 343°
2026-05-08 18:38 48.84055 8.07477 1588 ft 100 kts 345°
2026-05-08 18:39 48.84764 8.07238 1536 ft 108 kts 347°
2026-05-08 18:39 48.85499 8.06945 1482 ft 111 kts 342°
2026-05-08 18:39 48.86254 8.06699 1372 ft 111 kts 353°
2026-05-08 18:39 48.86997 8.06828 1248 ft 105 kts 13°
2026-05-08 18:40 48.87624 8.07137 1419 ft 79 kts 14°
2026-05-08 18:40 48.88102 8.07365 1703 ft 62 kts 22°
2026-05-08 18:40 48.88535 8.07732 1801 ft 81 kts 31°
2026-05-08 18:40 48.88985 8.08347 1710 ft 93 kts 33°
2026-05-08 18:41 48.89548 8.08843 1601 ft 102 kts 12°
2026-05-08 18:41 48.90234 8.09112 1527 ft 100 kts
2026-05-08 18:41 48.90957 8.09344 1312 ft 107 kts 11°
2026-05-08 18:41 48.91642 8.09819 1179 ft 109 kts 25°
2026-05-08 18:42 48.92273 8.10294 1288 ft 95 kts 21°
2026-05-08 18:42 48.92887 8.10744 1288 ft 101 kts 24°
2026-05-08 18:42 48.93481 8.11227 1378 ft 98 kts 26°
2026-05-08 18:42 48.94089 8.11747 1392 ft 100 kts 25°
2026-05-08 18:43 48.94701 8.12245 1391 ft 104 kts 25°
2026-05-08 18:43 48.95314 8.12868 1318 ft 108 kts 28°
2026-05-08 18:43 48.95965 8.13451 1218 ft 109 kts 26°
2026-05-08 18:43 48.96573 8.14149 1140 ft 111 kts 35°
2026-05-08 18:44 48.97128 8.14953 1087 ft 110 kts 35°
2026-05-08 18:44 48.97741 8.15680 988 ft 112 kts 29°
2026-05-08 18:44 48.98394 8.16288 1056 ft 107 kts 26°
2026-05-08 18:44 48.98918 8.16995 1176 ft 101 kts 35°
2026-05-08 18:45 48.99476 8.17699 1149 ft 108 kts 31°
2026-05-08 18:45 49.00114 8.18229 1157 ft 106 kts 18°
2026-05-08 18:45 49.00745 8.18776 1243 ft 101 kts 31°
2026-05-08 18:45 49.01316 8.19238 1481 ft 92 kts 22°
2026-05-08 18:46 49.01934 8.19640 1495 ft 102 kts 21°
2026-05-08 18:46 49.02633 8.19936 1522 ft 107 kts
2026-05-08 18:46 49.03349 8.20211 1602 ft 103 kts 16°
2026-05-08 18:46 49.04017 8.20511 1748 ft 102 kts 15°
2026-05-08 18:47 49.04761 8.20764 1591 ft 115 kts 13°
2026-05-08 18:47 49.05512 8.21186 1453 ft 116 kts 23°
2026-05-08 18:47 49.06184 8.21817 1403 ft 112 kts 31°
2026-05-08 18:47 49.06781 8.22432 1511 ft 104 kts 30°
2026-05-08 18:48 49.07379 8.23095 1456 ft 107 kts 33°
2026-05-08 18:48 49.07961 8.23789 1471 ft 103 kts 37°
2026-05-08 18:48 49.08476 8.24490 1553 ft 101 kts 41°
2026-05-08 18:48 49.09046 8.25277 1343 ft 110 kts 41°
2026-05-08 18:49 49.09516 8.26150 1322 ft 103 kts 47°
2026-05-08 18:49 49.09954 8.27030 1345 ft 102 kts 50°
2026-05-08 18:49 49.10341 8.27900 1500 ft 94 kts 52°
2026-05-08 18:49 49.10692 8.28658 1758 ft 85 kts 54°
2026-05-08 18:50 49.11019 8.29452 1838 ft 93 kts 54°
2026-05-08 18:50 49.11376 8.30283 1951 ft 96 kts 53°
2026-05-08 18:50 49.11764 8.31155 2053 ft 102 kts 50°
2026-05-08 18:50 49.12228 8.32011 2096 ft 106 kts 43°
2026-05-08 18:51 49.12749 8.32810 2171 ft 104 kts 41°
2026-05-08 18:51 49.13303 8.33442 2372 ft 98 kts 31°
2026-05-08 18:51 49.13892 8.33967 2514 ft 99 kts 29°
2026-05-08 18:51 49.14495 8.34480 2655 ft 100 kts 27°
2026-05-08 18:52 49.15103 8.34955 2807 ft 100 kts 27°
2026-05-08 18:52 49.15743 8.35457 2880 ft 104 kts 28°
2026-05-08 18:52 49.16374 8.36005 2961 ft 105 kts 29°
2026-05-08 18:52 49.17026 8.36559 3011 ft 108 kts 27°
2026-05-08 18:53 49.17672 8.37111 3075 ft 109 kts 28°
2026-05-08 18:53 49.18333 8.37732 3045 ft 113 kts 30°
2026-05-08 18:53 49.19015 8.38359 2997 ft 114 kts 28°
2026-05-08 18:53 49.19694 8.38949 2976 ft 113 kts 26°
2026-05-08 18:54 49.20392 8.39484 3020 ft 110 kts 24°
2026-05-08 18:54 49.21080 8.40016 3046 ft 111 kts 25°
2026-05-08 18:54 49.21768 8.40579 3039 ft 114 kts 26°
2026-05-08 18:54 49.22419 8.41251 3055 ft 111 kts 32°
2026-05-08 18:55 49.23678 8.42669 3050 ft 113 kts 34°
2026-05-08 18:55 49.24246 8.43486 3044 ft 111 kts 41°
2026-05-08 18:55 49.24761 8.44368 3054 ft 111 kts 43°
2026-05-08 18:56 49.25282 8.45242 3079 ft 111 kts 43°
2026-05-08 18:56 49.25811 8.46110 3073 ft 112 kts 42°
2026-05-08 18:56 49.26369 8.46956 3059 ft 114 kts 39°
2026-05-08 18:56 49.26945 8.47801 3006 ft 115 kts 39°
2026-05-08 18:57 49.27512 8.48643 2995 ft 113 kts 38°
2026-05-08 18:57 49.27913 8.49146 2980 ft 113 kts 33°
2026-05-08 18:57 49.28755 8.49961 3181 ft 100 kts 30°
2026-05-08 18:57 49.29375 8.50546 3204 ft 106 kts 30°
2026-05-08 18:58 49.30001 8.51176 3215 ft 112 kts 28°
2026-05-08 18:58 49.30652 8.51801 3235 ft 113 kts 30°
2026-05-08 18:58 49.31219 8.52490 3441 ft 95 kts 37°
2026-05-08 18:58 49.31746 8.52906 3753 ft 98 kts 26°
2026-05-08 18:59 49.32374 8.53421 3846 ft 105 kts 25°
2026-05-08 18:59 49.33011 8.53796 4116 ft 104 kts 16°
2026-05-08 18:59 49.33709 8.54101 4230 ft 111 kts 14°
2026-05-08 18:59 49.34518 8.54339 3991 ft 131 kts
2026-05-08 19:00 49.35136 8.54646 3596 ft 140 kts 19°
2026-05-08 19:00 49.35952 8.55082 3790 ft 114 kts 11°
2026-05-08 19:00 49.36724 8.55126 3993 ft 110 kts 354°
2026-05-08 19:00 49.37491 8.54919 4080 ft 115 kts 346°
2026-05-08 19:01 49.38304 8.54618 4006 ft 126 kts 342°
2026-05-08 19:01 49.39153 8.54220 3930 ft 128 kts 338°
2026-05-08 19:01 49.39989 8.53790 3869 ft 128 kts 337°
2026-05-08 19:01 49.40822 8.53336 3834 ft 126 kts 336°
2026-05-08 19:02 49.41652 8.52859 3804 ft 126 kts 335°
2026-05-08 19:02 49.42441 8.52319 3808 ft 125 kts 331°
2026-05-08 19:02 49.43205 8.51681 3877 ft 120 kts 328°
2026-05-08 19:02 49.43922 8.51056 4000 ft 118 kts 328°
2026-05-08 19:03 49.44587 8.50372 4189 ft 114 kts 322°
2026-05-08 19:03 49.45277 8.49631 4074 ft 127 kts 321°
2026-05-08 19:03 49.46020 8.48830 3957 ft 132 kts 320°
2026-05-08 19:03 49.46757 8.47990 3867 ft 131 kts 317°
2026-05-08 19:04 49.47471 8.47120 3797 ft 129 kts 319°
2026-05-08 19:04 49.48182 8.46318 3707 ft 130 kts 321°
2026-05-08 19:04 49.48926 8.45521 3581 ft 131 kts 322°
2026-05-08 19:04 49.49676 8.44710 3479 ft 133 kts 321°
2026-05-08 19:05 49.50417 8.43902 3447 ft 130 kts 322°
2026-05-08 19:05 49.51142 8.43139 3533 ft 122 kts 323°
2026-05-08 19:05 49.51832 8.42427 3638 ft 118 kts 325°
2026-05-08 19:05 49.52544 8.41793 3680 ft 120 kts 329°
2026-05-08 19:06 49.53258 8.41065 3609 ft 127 kts 320°
2026-05-08 19:06 49.54003 8.40285 3455 ft 134 kts 324°
2026-05-08 19:06 49.54838 8.39650 3268 ft 136 kts 328°
2026-05-08 19:06 49.55638 8.38958 3214 ft 130 kts 328°
2026-05-08 19:07 49.56451 8.38332 3109 ft 130 kts 331°
2026-05-08 19:07 49.57297 8.37959 3053 ft 120 kts 356°
2026-05-08 19:07 49.58088 8.38175 3070 ft 115 kts 17°
2026-05-08 19:07 49.58825 8.38690 2985 ft 120 kts 22°
2026-05-08 19:08 49.59564 8.39319 2849 ft 121 kts 27°
2026-05-08 19:08 49.60238 8.40094 2770 ft 116 kts 37°
2026-05-08 19:08 49.60827 8.40874 2841 ft 108 kts 36°
2026-05-08 19:08 49.61433 8.41651 2692 ft 119 kts 33°
2026-05-08 19:09 49.62098 8.42484 2386 ft 127 kts 33°
2026-05-08 19:09 49.62769 8.43361 2156 ft 125 kts 34°
2026-05-08 19:09 49.63432 8.44217 1982 ft 123 kts 34°
2026-05-08 19:09 49.64085 8.45006 1925 ft 116 kts 32°
2026-05-08 19:10 49.64736 8.45773 1786 ft 118 kts 33°
2026-05-08 19:10 49.65418 8.46308 1714 ft 101 kts 356°
2026-05-08 19:10 49.66004 8.45899 1840 ft 93 kts 296°
2026-05-08 19:10 49.66188 8.44972 1827 ft 88 kts 251°
2026-05-08 19:11 49.65947 8.44196 1864 ft 75 kts 201°
2026-05-08 19:11 49.65558 8.43800 1892 ft 59 kts 180°
2026-05-08 19:11 49.65183 8.43882 1786 ft 54 kts 143°
2026-05-08 19:11 49.64876 8.44160 1688 ft 51 kts 126°
2026-05-08 19:12 49.64590 8.44571 1520 ft 61 kts 109°
2026-05-08 19:12 49.64387 8.45055 1497 ft 44 kts 99°
2026-05-08 19:12 49.64354 8.45376 1466 ft 19 kts 94°
2026-05-08 19:12 49.64380 8.45493 1409 ft 6 kts 97°
2026-05-08 19:13 49.64398 8.45526 1373 ft 3 kts 100°
2026-05-08 19:13 49.64359 8.45578 1368 ft 8 kts 100°
2026-05-08 19:13 49.64331 8.45699 1389 ft 18 kts 98°
2026-05-08 19:13 49.64282 8.45841 1423 ft 9 kts 98°
2026-05-08 19:14 49.64231 8.45923 1373 ft 15 kts 99°
2026-05-08 19:14 49.64180 8.46099 1399 ft 20 kts 78°
2026-05-08 19:14 49.64170 8.46339 1428 ft 29 kts 62°
2026-05-08 19:14 49.64258 8.46681 1473 ft 39 kts 34°
2026-05-08 19:15 49.64357 8.46798 1514 ft 6 kts 17°
2026-05-08 19:15 49.64432 8.46819 1491 ft 31 kts
2026-05-08 19:15 49.64837 8.46825 1457 ft 74 kts 351°
2026-05-08 19:15 49.65300 8.46645 1343 ft 63 kts 322°
2026-05-08 19:16 49.65569 8.46258 1153 ft 42 kts 224°
2026-05-08 19:16 49.65491 8.45957 1068 ft 33 kts 173°
2026-05-08 19:16 49.65242 8.45953 991 ft 38 kts 132°
2026-05-08 19:16 49.65100 8.46179 919 ft 23 kts 136°
2026-05-08 19:17 49.65032 8.46339 796 ft 12 kts 137°
2026-05-08 19:17 49.65024 8.46403 715 ft 1 kts 140°
2026-05-08 19:17 49.64999 8.46428 641 ft 13 kts 142°
2026-05-08 19:17 49.64912 8.46563 596 ft 26 kts 113°
2026-05-08 19:18 49.65176 8.46791 587 ft 72 kts 16°
2026-05-08 19:18 49.65748 8.46980 743 ft 97 kts 12°
2026-05-08 19:18 49.66390 8.47371 813 ft 107 kts 19°
2026-05-08 19:18 49.67036 8.47994 868 ft 109 kts 36°
2026-05-08 19:19 49.67591 8.48782 973 ft 107 kts 38°
2026-05-08 19:19 49.68102 8.49580 1128 ft 107 kts 41°
2026-05-08 19:19 49.68566 8.50424 1346 ft 102 kts 47°
2026-05-08 19:19 49.68994 8.51322 1442 ft 107 kts 50°
2026-05-08 19:20 49.69406 8.52317 1476 ft 112 kts 53°
2026-05-08 19:20 49.69537 8.52655 1467 ft 113 kts 53°
2026-05-08 19:20 49.70251 8.54382 1444 ft 115 kts 50°
2026-05-08 19:20 49.70701 8.55391 1409 ft 114 kts 49°
2026-05-08 19:21 49.71150 8.56357 1443 ft 110 kts 49°
2026-05-08 19:21 49.71606 8.57300 1465 ft 110 kts 46°
2026-05-08 19:21 49.72066 8.58243 1503 ft 109 kts 48°
2026-05-08 19:21 49.72544 8.59176 1503 ft 111 kts 44°
2026-05-08 19:22 49.73031 8.60082 1546 ft 109 kts 44°
2026-05-08 19:22 49.73407 8.61066 1552 ft 102 kts 57°
2026-05-08 19:22 49.73778 8.61975 1628 ft 92 kts 51°
2026-05-08 19:22 49.74073 8.62810 1483 ft 86 kts 55°
2026-05-08 19:23 49.74352 8.63591 1482 ft 78 kts 53°
2026-05-08 19:23 49.74484 8.64331 1580 ft 66 kts 66°
2026-05-08 19:23 49.74719 8.64958 1537 ft 70 kts 49°
2026-05-08 19:23 49.75157 8.65160 1536 ft 61 kts 354°
2026-05-08 19:24 49.75528 8.64965 1397 ft 54 kts 319°
2026-05-08 19:24 49.75719 8.64590 1392 ft 37 kts 299°
2026-05-08 19:24 49.75751 8.64366 1270 ft 10 kts 309°
2026-05-08 19:24 49.75789 8.64283 1169 ft 18 kts 314°
2026-05-08 19:25 49.75897 8.64128 1160 ft 23 kts 314°
2026-05-08 19:25 49.76005 8.64031 1088 ft 11 kts 351°
2026-05-08 19:25 49.76094 8.63975 979 ft 17 kts 54°
2026-05-08 19:25 49.76143 8.64019 901 ft 2 kts 88°
2026-05-08 19:26 49.76116 8.64019 727 ft 11 kts 110°
2026-05-08 19:26 49.76177 8.63946 699 ft 14 kts 150°
2026-05-08 19:26 49.76131 8.64063 573 ft 16 kts 148°
2026-05-08 19:26 49.76132 8.64142 435 ft 2 kts 152°
2026-05-08 19:27 49.76159 8.64152 408 ft 2 kts 141°
2026-05-08 19:27 49.76165 8.64153 398 ft 0 kts 142°
2026-05-08 19:31 49.76148 8.64143 402 ft 7 kts 153°
2026-05-08 19:32 49.76107 8.64124 449 ft 8 kts 156°
2026-05-08 19:32 49.76060 8.64151 546 ft 12 kts 89°
2026-05-08 19:32 49.76095 8.64333 674 ft 39 kts 48°
2026-05-08 19:32 49.76330 8.64679 859 ft 50 kts 52°
2026-05-08 19:33 49.76744 8.64821 871 ft 71 kts 12°
2026-05-08 19:33 49.77267 8.64941 926 ft 81 kts
2026-05-08 19:33 49.77823 8.65215 962 ft 86 kts 20°
2026-05-08 19:33 49.78341 8.65639 1098 ft 82 kts 25°
2026-05-08 19:34 49.78837 8.66071 1319 ft 80 kts 29°
2026-05-08 19:34 49.79284 8.66541 1450 ft 79 kts 35°
2026-05-08 19:34 49.79694 8.67121 1456 ft 89 kts 47°
2026-05-08 19:34 49.80058 8.67933 1448 ft 94 kts 47°
2026-05-08 19:35 49.80434 8.68827 1313 ft 101 kts 56°
2026-05-08 19:35 49.80768 8.69712 1363 ft 91 kts 47°
2026-05-08 19:35 49.81186 8.70477 1302 ft 97 kts 43°
2026-05-08 19:35 49.81595 8.71324 1364 ft 102 kts 52°
2026-05-08 19:36 49.81986 8.72292 1369 ft 109 kts 53°
2026-05-08 19:36 49.82384 8.73300 1397 ft 110 kts 52°
2026-05-08 19:36 49.82803 8.74304 1390 ft 112 kts 51°
2026-05-08 19:36 49.83222 8.75315 1384 ft 113 kts 51°
2026-05-08 19:37 49.83584 8.76330 1350 ft 113 kts 56°
2026-05-08 19:37 49.83959 8.77427 1349 ft 112 kts 56°
2026-05-08 19:37 49.84338 8.78430 1450 ft 110 kts 53°
2026-05-08 19:37 49.84592 8.79514 1434 ft 109 kts 88°
2026-05-08 19:38 49.84436 8.80701 1301 ft 113 kts 103°
2026-05-08 19:38 49.84187 8.81869 1198 ft 116 kts 108°
2026-05-08 19:38 49.83901 8.83037 1090 ft 109 kts 105°
2026-05-08 19:38 49.83702 8.83985 1126 ft 79 kts 97°
2026-05-08 19:39 49.83500 8.84728 1153 ft 75 kts 107°
2026-05-08 19:39 49.83304 8.85443 1202 ft 73 kts 87°
2026-05-08 19:39 49.83454 8.86104 1291 ft 64 kts 39°
2026-05-08 19:39 49.83854 8.86274 1343 ft 58 kts 334°
2026-05-08 19:40 49.84066 8.85948 1368 ft 31 kts 282°
2026-05-08 19:40 49.84075 8.85677 1265 ft 22 kts 265°
2026-05-08 19:40 49.84051 8.85451 1139 ft 16 kts 253°
2026-05-08 19:40 49.84030 8.85381 1017 ft 11 kts 252°
2026-05-08 19:41 49.83991 8.85159 886 ft 24 kts 246°
2026-05-08 19:41 49.83959 8.85020 788 ft 11 kts 301°
2026-05-08 19:41 49.83987 8.85025 663 ft 12 kts 355°
2026-05-08 19:41 49.84072 8.85105 601 ft 16 kts
2026-05-08 19:42 49.84186 8.85132 561 ft 17 kts
2026-05-08 19:42 49.84266 8.85160 527 ft 9 kts
2026-05-08 19:42 49.84321 8.85175 511 ft 8 kts
2026-05-08 19:42 49.84343 8.85176 509 ft 5 kts 313°
2026-05-08 19:43 49.84352 8.85158 503 ft 4 kts 309°
2026-05-08 19:43 49.84362 8.85130 507 ft 0 kts 344°
2026-05-08 19:43 49.84362 8.85131 507 ft 0 kts 340°